Weather History for Harrison, AR

Change the Weather History Date:

Wednesday, January 2, 2013

  Actual Average Record
Temperature  
Mean Temperature 28 °F 36 °F  
Max Temperature 37 °F 46 °F 79 °F (1927)
Min Temperature 19 °F 26 °F -1 °F (1979)
Degree Days  
Heating Degree Days 37 29  
Month to date heating degree days 72 58  
Since 1 July heating degree days 1480 1657  
Cooling Degree Days 0 0  
Month to date cooling degree days 0 0  
Year to date cooling degree days 0 0  
Moisture  
Dew Point 21 °F    
Average Humidity 78    
Maximum Humidity 96    
Minimum Humidity 59    
Precipitation  
Precipitation 0.00 in 0.08 in 2.58 in (1966)
Month to date precipitation T 0.16  
Year to date precipitation T 0.16  
Snow  
Snow 0.00 in 0.10 in 9.40 in (1996)
Month to date snowfall T 0.2  
Since 1 July snowfall 0.3 2.0  
Snow Depth 0.00 in    
Sea Level Pressure  
Sea Level Pressure 30.24 in    
Wind  
Wind Speed 3 mph (WNW)    
Max Wind Speed 9 mph    
Max Gust Speed 12 mph    
Visibility 7 miles    
Events      
T = Trace of Precipitation, MM = Missing Value Source: NWS Daily Summary

Daily Weather History Graph

Daily Weather History Graph

Search for Another Location

Airport:

Trip Planner

Search our weather history database for the weather conditions in past years. The results will help you decide how hot, cold, wet, or windy it might be!

Date:

Astronomy

Jan. 02, 2013 Rise Set
Actual Time 7:24 AM CST 5:09 PM CST
Civil Twilight 6:55 AM CST 5:38 PM CST
Nautical Twilight 6:23 AM CST 6:10 PM CST
Astronomical Twilight 5:52 AM CST 6:41 PM CST
Moon 10:32 PM CST (1/2) 10:15 AM CST (1/2)
Length of Visible Light 10h 42m
Length of Day
9h 45m
Waning Gibbous, 75% of the Moon is Illuminated
Jan 2
Waning Gibbous
Jan 4
Last Quarter
Jan 11
New
Jan 18
First Quarter
Jan 26
Full

Hourly Weather History & Observations

Time (CST) Temp. Windchill Dew Point Humidity Pressure Visibility Wind Dir Wind Speed Gust Speed Precip Events Conditions
12:18 AM 24.8 °F - 21.2 °F 86% 30.21 in 6.0 mi Calm Calm - N/A   Mostly Cloudy
12:49 AM 23.0 °F 17.0 °F 21.2 °F 93% 30.21 in 5.0 mi NNW 4.6 mph - N/A   Scattered Clouds
12:53 AM 23.0 °F 18.4 °F 21.0 °F 92% 30.25 in 5.0 mi NNW 3.5 mph - N/A   Scattered Clouds
1:00 AM 23.0 °F 18.4 °F 21.2 °F 93% 30.21 in 5.0 mi NNW 3.5 mph - N/A   Mostly Cloudy
1:38 AM 23.0 °F - 21.2 °F 93% 30.23 in 5.0 mi Calm Calm - N/A   Mostly Cloudy
1:53 AM 23.0 °F - 21.0 °F 92% 30.27 in 5.0 mi Calm Calm - N/A   Mostly Cloudy
2:53 AM 21.9 °F 17.2 °F 19.9 °F 92% 30.28 in 5.0 mi WNW 3.5 mph - N/A   Overcast
3:53 AM 21.9 °F - 19.9 °F 92% 30.27 in 6.0 mi Calm Calm - N/A   Overcast
4:53 AM 21.0 °F 14.6 °F 18.0 °F 88% 30.27 in 6.0 mi NW 4.6 mph - N/A   Scattered Clouds
5:53 AM 19.0 °F 12.3 °F 17.1 °F 92% 30.27 in 5.0 mi NNW 4.6 mph - N/A   Clear
6:53 AM 19.9 °F 14.9 °F 18.0 °F 92% 30.27 in 6.0 mi NW 3.5 mph - N/A   Clear
7:10 AM 19.4 °F 12.8 °F 17.6 °F 93% 30.23 in 6.0 mi NW 4.6 mph - N/A   Scattered Clouds
7:21 AM 19.4 °F 14.3 °F 17.6 °F 93% 30.23 in 6.0 mi WNW 3.5 mph - N/A   Mostly Cloudy
7:38 AM 19.4 °F - 17.6 °F 93% 30.22 in 4.0 mi Calm Calm - N/A   Scattered Clouds
7:53 AM 19.9 °F 14.9 °F 18.0 °F 92% 30.28 in 4.0 mi NNW 3.5 mph - N/A   Clear
8:00 AM 19.4 °F - 17.6 °F 93% 30.23 in 4.0 mi Calm Calm - N/A   Scattered Clouds
8:53 AM 21.2 °F 16.4 °F 19.4 °F 93% 30.23 in 4.0 mi South 3.5 mph - N/A   Clear
9:41 AM 23.0 °F 14.7 °F 21.2 °F 93% 30.23 in 2.5 mi SSE 6.9 mph - N/A   Clear
9:53 AM 24.1 °F 16.0 °F 21.9 °F 91% 30.28 in 3.0 mi SE 6.9 mph - N/A   Clear
10:53 AM 26.1 °F 21.9 °F 23.0 °F 88% 30.28 in 5.0 mi SSE 3.5 mph - N/A   Clear
11:53 AM 30.0 °F - 25.0 °F 82% 30.25 in 7.0 mi Calm Calm - N/A   Clear
12:15 PM 30.2 °F - 26.6 °F 86% 30.20 in 7.0 mi Calm Calm - N/A   Mostly Cloudy
12:34 PM 30.2 °F - 24.8 °F 80% 30.19 in 8.0 mi Calm Calm - N/A   Scattered Clouds
12:53 PM 33.1 °F - 25.0 °F 72% 30.22 in 9.0 mi Calm Calm - N/A   Partly Cloudy
1:53 PM 35.1 °F 28.6 °F 26.1 °F 70% 30.21 in 10.0 mi West 8.1 mph - N/A   Partly Cloudy
2:53 PM 36.0 °F 32.1 °F 23.0 °F 59% 30.20 in 10.0 mi Variable 4.6 mph - N/A   Clear
3:53 PM 36.0 °F 33.3 °F 24.1 °F 62% 30.20 in 10.0 mi Variable 3.5 mph - N/A   Clear
4:53 PM 33.8 °F 30.8 °F 23.0 °F 65% 30.17 in 10.0 mi West 3.5 mph - N/A   Clear
5:53 PM 33.1 °F - 21.0 °F 61% 30.22 in 10.0 mi Calm Calm - N/A   Clear
6:53 PM 30.9 °F - 21.0 °F 67% 30.24 in 10.0 mi Calm Calm - N/A   Clear
7:53 PM 28.0 °F - 21.9 °F 78% 30.27 in 10.0 mi Calm Calm - N/A   Clear
8:53 PM 28.9 °F 25.2 °F 21.0 °F 72% 30.27 in 10.0 mi West 3.5 mph - N/A   Clear
9:53 PM 28.4 °F - 19.4 °F 69% 30.24 in 10.0 mi Calm Calm - N/A   Clear
10:53 PM 26.6 °F 22.6 °F 17.6 °F 69% 30.23 in 10.0 mi WNW 3.5 mph - N/A   Clear
11:53 PM 27.0 °F 23.0 °F 19.0 °F 72% 30.27 in 10.0 mi WNW 3.5 mph - N/A   Clear